1500721215.5,286046995.0,Y
1500721235.3,286046997.3,N
1500721255.1,286046999.1,N
1500721275.9,286046999.6,N
1500721295.7,286046997.7,N
1500721315.5,286046997.0,N
1500721335.3,286046996.6,N
1500721355.2,286046995.4,Y
1500721375.0,286047002.4,N
1500721375.9,286047002.4,N
1500721395.8,286046999.0,N
1500721415.6,286046995.1,N
1500721435.4,286046997.5,N
1500721455.2,286046997.9,N
1500721475.1,286046995.4,N
1500721476.0,286046995.4,N
1500721495.8,286046996.2,N
1500721515.8,286046997.3,N
1500721535.6,286046997.7,N
1500721555.5,286046993.7,Y
1500721575.3,286046996.0,N
1500721595.1,286046997.1,N
1500721615.9,286046995.2,Y
1500721635.7,286047001.0,N
1500721655.5,286047000.7,N
1500721675.4,286046998.4,N
1500721695.2,286046999.2,N
1500721715.0,286046997.4,N
1500721715.9,286046997.4,N
1500721735.8,286047000.9,N
1500721755.6,286047002.6,N
1500721775.4,286047000.3,N
1500721795.2,286046998.7,N
1500721815.1,286046995.0,N
1500721816.0,286046995.0,N
1500721835.8,286046995.7,N
1500721855.6,286046993.3,N
1500721875.5,286046996.4,N
1500721895.3,286046993.9,N
1500721915.1,286046993.8,N
1500721935.9,286046996.8,N
1500721955.7,286046997.5,N
1500721975.5,286046997.5,N
1500721995.3,286046999.2,N
1500722015.2,286046997.9,N
1500722035.0,286046993.3,Y
1500722035.9,286046993.3,Y
1500722055.8,286047004.2,N
1500722075.6,286047001.4,N
1500722095.4,286047001.4,N
1500722115.3,286047003.0,N
1500722135.1,286047001.3,N
1500722136.0,286047001.3,N
1500722155.8,286047006.0,N
1500722175.7,286047006.2,N
1500722195.5,286047005.4,N
1500722215.3,286047005.8,N
1500722235.1,286047006.3,N
1500722255.9,286047007.3,N
1500722275.7,286047009.0,N
1500722295.5,286047007.2,N
1500722315.4,286047006.3,N
1500722335.2,286047003.0,N
1500722355.0,286047006.0,N
1500722355.9,286047006.0,N
1500722375.8,286047003.6,N
1500722395.6,286047003.1,N
1500722415.4,286047003.7,N
1500722435.3,286047004.0,N
1500722455.1,286047003.8,N
1500722456.0,286047003.8,N
1500722475.8,286047003.7,N
1500722495.6,286047004.2,N
1500722515.5,286047001.8,N
1500722535.3,286047003.9,N
1500722555.1,286047007.2,Y
1500722575.9,286047003.9,N
1500722595.7,286047001.0,N
1500722615.7,286046997.0,N
1500722635.5,286046999.1,N
1500722655.3,286046998.3,N
1500722675.1,286047001.1,N
1500722695.9,286046998.5,N
1500722715.7,286046998.6,N
1500722735.5,286047001.9,N
1500722755.4,286047003.7,N
1500722775.2,286047002.1,N
1500722795.0,286047004.1,N
1500722795.9,286047004.1,N
1500722815.8,286047002.8,N
1500722835.6,286047001.8,N
1500722855.4,286047004.4,N
1500722875.2,286047002.6,N
1500722895.1,286047001.0,N
1500722896.0,286047001.0,N
1500722915.8,286046998.9,N
1500722935.7,286046997.3,N
1500722955.5,286046999.4,N
1500722975.4,286046996.5,N
1500722995.2,286046995.7,N
1500723015.0,286046995.7,N
1500723015.9,286046995.7,N
1500723035.8,286046994.9,N
1500723055.6,286046993.4,N
1500723075.4,286046994.0,N
1500723095.3,286046994.5,N
1500723115.1,286046997.1,N
1500723116.0,286046997.1,N
1500723135.8,286046996.1,N
1500723155.7,286046993.9,Y
1500723175.5,286046998.9,N
1500723195.3,286047000.3,N
1500723215.2,286046998.3,N
1500723235.9,286046998.8,N
1500723255.7,286046995.6,N
1500723275.6,286046995.6,N
1500723295.4,286046993.5,Y
1500723315.2,286046996.5,N
1500723335.1,286046999.4,N
1500723336.0,286046999.4,N
1500723355.8,286046997.3,N
1500723375.6,286046997.6,N
1500723395.4,286046998.0,N
1500723415.3,286047001.1,N
1500723435.1,286046998.2,N
1500723455.8,286046996.8,N
1500723475.7,286046996.6,N
1500723495.5,286047001.0,N
1500723515.3,286046999.8,N
1500723535.2,286047001.3,N
1500723555.9,286047001.7,N
1500723575.7,286047003.3,N
1500723595.6,286047005.1,N
1500723615.4,286047006.0,N
1500723635.2,286047005.4,N
1500723655.0,286047005.9,N
1500723655.9,286047005.9,N
1500723675.8,286047005.4,N
1500723695.6,286047004.0,N
1500723715.4,286047001.4,N
1500723735.3,286046998.5,N
1500723755.1,286047002.3,N
1500723756.0,286047002.3,N
1500723775.8,286047001.5,N
1500723795.7,286047004.1,N
1500723815.5,286047001.3,N
1500723835.3,286047002.3,N
1500723855.2,286046999.7,N
1500723875.9,286047001.5,N
1500723895.7,286047001.5,N
1500723915.5,286047003.4,N
1500723935.4,2860471500724115.1,286046993.4,Y
1500724135.9,286046998.5,Y
1500724155.7,286047007.5,Y
1500724175.6,286047012.4,N
1500724195.4,286047012.8,N
1500724215.2,286047011.6,N
1500724235.0,286047010.9,N
1500724235.9,286047010.9,N
1500724255.8,286047011.6,N
1500724275.6,286047011.9,N
1500724295.4,286047011.5,N
1500724315.3,286047009.7,N
1500724335.1,286047012.4,Y
1500724355.8,286047002.7,N
1500724375.7,286047002.8,N
1500724395.5,286047004.2,N
1500724415.3,286047005.1,N
1500724435.2,286047005.3,N
1500724455.9,286047001.4,N
1500724475.7,286047001.5,N
1500724495.5,286047000.5,N
1500724515.4,286047002.2,N
1500724535.2,286047003.7,N
1500724555.0,286047003.8,N
1500724555.9,286047003.8,N
1500724575.8,286047000.7,N
1500724595.6,286046997.1,N
1500724615.4,286046998.0,N
1500724635.3,286046998.3,N
1500724655.1,286046999.6,N
1500724656.0,286046999.6,N
1500724675.8,286046995.4,N
1500724695.7,286046997.9,N
1500724715.5,286046995.4,N
1500724735.3,286046995.7,N
1500724755.1,286046994.3,N
1500724775.9,286046992.2,Y
1500724795.7,286046997.3,N
